{"data":{"norad_id":67428,"intl_designator":"2026-005AA","name":"STARLINK-36464","alt_names":[],"object_type":"PAYLOAD","status":"ACTIVE","operator":null,"country":"US","launch_date":"2026-01-12","launch_site_code":"AFETR","launch_vehicle":null,"mission":null,"orbit_class":"UNKNOWN","rcs_meters":null,"size_class":null,"mass_kg":null,"dimensions":null,"purposes":["comms"],"wikipedia_slug":null,"has_3d_model":false,"image_url":null,"decayed_at":null,"tle_current":{"epoch":"2026-05-25T02:29:32.150976Z","epoch_age_seconds":69248,"freshness":"FRESH","line1":"1 67428U 26005AA  26145.10384434  .00010386  00000+0  38631-3 0  9996","line2":"2 67428  43.0013 166.3776 0000989 271.5196  88.5542 15.27588805 20376","mean_motion":15.27588805,"eccentricity":9.89e-5,"inclination_deg":43.0013,"raan_deg":166.3776,"arg_perigee_deg":271.5196,"mean_anomaly_deg":88.5542,"bstar":0.00038631,"rev_number":2037,"period_min":94.266205361462,"perigee_km":482.34416213133,"apogee_km":483.70129952609,"semimajor_km":6861.1597308287,"source":"CELESTRAK","updated_at":"2026-05-25T13:38:21.557851Z"}}}